Location: Unspecified
(45.3712°N, 0.6436°E)
Time: 15:41:28
(UTC+02:00)

N. Korean satellite - Visible Passes

Search period start: 21 September 2018 00:00
Search period end: 01 October 2018 00:00
Orbit: 458 x 511 km, 97.2° (Epoch: 20 September)

Date Brightness Start Highest point End Pass type
(mag) Time Alt. Az. Time Alt. Az. Time Alt. Az.
23 Sep 10.4 07:16:25 10° ENE 07:18:05 13° E 07:19:44 10° ESE visible
24 Sep 10.0 20:36:48 10° SW 20:38:46 14° W 20:40:44 10° WNW visible
27 Sep 10.6 07:12:51 10° ENE 07:14:08 11° E 07:15:24 10° ESE visible
28 Sep 9.9 20:32:32 10° SW 20:34:47 16° W 20:37:03 10° NW visible
29 Sep 9.0 20:07:05 10° SSW 20:10:14 30° W 20:13:28 10° NNW visible
